QPF
0.02 0.03 0.05 0.07 0.08 0.08 0.07 0.05 0.05 0.05 0.07 0.09 0.08 0.09 0.08 0.07 0.06 0.06 0.04 0.05 0.05 0.06 0.06 0.06 0.06 0.07 0.07 0.04 0.03 0.03 0.04 0.05 0.06 0.05 0.04 0.04 0.06 0.06 0.06 0.05 0.06 0.06 0.05
0.01 0.02 0.03 0.04 0.05 0.05 0.05 0.04 0.04 0.05 0.06 0.07 0.07 0.07 0.06 0.06 0.05 0.05 0.03 0.03 0.03 0.04 0.05 0.05 0.05 0.06 0.08 0.06 0.06 0.05 0.05 0.06 0.05 0.05 0.06 0.07 0.07 0.06 0.06 0.05 0.05 0.05 0.06
0.01 0.02 0.03 0.03 0.04 0.05 0.05 0.05 0.05 0.04 0.04 0.04 0.05 0.05 0.06 0.05 0.04 0.04 0.04 0.04 0.03 0.03 0.04 0.04 0.04 0.05 0.06 0.06 0.06 0.06 0.06 0.06 0.07 0.06 0.05 0.06 0.06 0.06 0.07 0.05 0.05 0.05 0.04
0.03 0.04 0.04 0.04 0.05 0.06 0.06 0.06 0.05 0.04 0.04 0.04 0.04 0.04 0.05 0.06 0.04 0.03 0.03 0.04 0.04 0.04 0.04 0.04 0.04 0.05 0.05 0.05 0.05 0.06 0.07 0.07 0.08 0.08 0.07 0.06 0.06 0.06 0.07 0.06 0.05 0.05 0.05
0.02 0.04 0.05 0.06 0.05 0.06 0.06 0.05 0.04 0.04 0.03 0.03 0.04 0.04 0.05 0.06 0.05 0.04 0.03 0.03 0.04 0.05 0.05 0.04 0.04 0.03 0.03 0.04 0.03 0.04 0.05 0.05 0.05 0.06 0.07 0.08 0.09 0.10 0.07 0.06 0.07 0.07 0.06
0.02 0.03 0.04 0.05 0.05 0.05 0.04 0.04 0.04 0.03 0.03 0.03 0.03 0.04 0.04 0.03 0.03 0.03 0.03 0.04 0.04 0.05 0.05 0.04 0.03 0.03 0.03 0.03 0.03 0.03 0.04 0.04 0.04 0.04 0.06 0.09 0.11 0.12 0.12 0.09 0.09 0.10 0.07
0.01 0.02 0.03 0.05 0.06 0.05 0.04 0.04 0.03 0.03 0.02 0.03 0.03 0.03 0.03 0.04 0.03 0.03 0.03 0.04 0.05 0.05 0.03 0.04 0.03 0.02 0.03 0.03 0.03 0.03 0.03 0.04 0.03 0.03 0.04 0.05 0.07 0.10 0.11 0.10 0.09 0.09 0.07
0.02 0.02 0.02 0.03 0.03 0.04 0.04 0.04 0.03 0.04 0.03 0.03 0.03 0.04 0.04 0.04 0.03 0.02 0.02 0.04 0.06 0.05 0.04 0.04 0.04 0.03 0.03 0.03 0.03 0.03 0.03 0.03 0.03 0.03 0.03 0.04 0.05 0.07 0.09 0.09 0.08 0.07 0.06
0.02 0.03 0.03 0.03 0.03 0.03 0.03 0.04 0.05 0.05 0.04 0.04 0.04 0.04 0.04 0.04 0.03 0.03 0.03 0.03 0.05 0.06 0.04 0.05 0.05 0.05 0.03 0.02 0.03 0.04 0.04 0.03 0.03 0.03 0.02 0.02 0.03 0.04 0.06 0.07 0.07 0.06 0.05
0.02 0.03 0.05 0.05 0.05 0.05 0.04 0.04 0.05 0.05 0.04 0.04 0.03 0.04 0.04 0.03 0.03 0.03 0.03 0.03 0.04 0.05 0.06 0.06 0.04 0.04 0.02 0.01 0.02 0.04 0.05 0.04 0.04 0.03 0.03 0.04 0.04 0.04 0.04 0.04 0.05 0.06 0.06
0.04 0.05 0.06 0.07 0.08 0.07 0.07 0.06 0.05 0.05 0.04 0.04 0.04 0.04 0.03 0.03 0.04 0.04 0.04 0.04 0.05 0.05 0.05 0.05 0.05 0.03 0.02 0.01 0.01 0.02 0.03 0.04 0.05 0.05 0.05 0.04 0.03 0.03 0.02 0.02 0.03 0.05 0.05
0.05 0.05 0.06 0.06 0.06 0.07 0.08 0.07 0.06 0.06 0.05 0.05 0.05 0.05 0.04 0.03 0.03 0.03 0.03 0.04 0.05 0.05 0.06 0.05 0.04 0.03 0.02 0.01 0.01 0.02 0.02 0.03 0.04 0.05 0.06 0.05 0.03 0.03 0.03 0.03 0.02 0.03 0.03
0.04 0.04 0.04 0.04 0.05 0.08 0.08 0.08 0.07 0.06 0.06 0.05 0.05 0.04 0.04 0.03 0.03 0.03 0.03 0.03 0.04 0.05 0.06 0.06 0.05 0.04 0.04 0.03 0.02 0.02 0.02 0.03 0.04 0.04 0.04 0.04 0.04 0.04 0.04 0.03 0.02 0.02 0.02
0.02 0.02 0.03 0.04 0.05 0.07 0.09 0.09 0.08 0.07 0.07 0.06 0.05 0.05 0.05 0.05 0.04 0.03 0.03 0.03 0.03 0.04 0.04 0.05 0.04 0.05 0.05 0.04 0.04 0.03 0.03 0.03 0.04 0.04 0.04 0.05 0.05 0.04 0.03 0.03 0.02 0.02 0.02
0.03 0.03 0.04 0.05 0.06 0.06 0.07 0.07 0.07 0.07 0.08 0.08 0.08 0.06 0.05 0.05 0.06 0.04 0.03 0.02 0.02 0.03 0.03 0.03 0.02 0.03 0.03 0.04 0.04 0.04 0.04 0.03 0.03 0.02 0.03 0.04 0.04 0.03 0.04 0.04 0.03 0.03 0.03
0.04 0.03 0.03 0.04 0.05 0.06 0.06 0.06 0.07 0.08 0.08 0.08 0.08 0.07 0.07 0.07 0.07 0.07 0.05 0.03 0.02 0.03 0.03 0.03 0.03 0.03 0.04 0.04 0.04 0.04 0.04 0.03 0.02 0.02 0.03 0.03 0.03 0.03 0.04 0.04 0.04 0.04 0.03
0.05 0.05 0.05 0.05 0.05 0.05 0.06 0.05 0.06 0.06 0.06 0.06 0.06 0.07 0.08 0.08 0.07 0.08 0.08 0.05 0.02 0.02 0.02 0.03 0.03 0.03 0.03 0.04 0.04 0.04 0.04 0.03 0.03 0.04 0.04 0.03 0.03 0.03 0.04 0.04 0.04 0.04 0.04
0.05 0.06 0.06 0.07 0.08 0.06 0.05 0.05 0.05 0.07 0.06 0.05 0.06 0.06 0.05 0.06 0.05 0.05 0.07 0.06 0.03 0.02 0.02 0.03 0.04 0.03 0.02 0.02 0.02 0.03 0.04 0.04 0.04 0.05 0.04 0.03 0.03 0.04 0.03 0.03 0.04 0.04 0.04
0.06 0.05 0.06 0.06 0.06 0.08 0.07 0.07 0.06 0.04 0.04 0.04 0.06 0.05 0.06 0.07 0.08 0.08 0.08 0.06 0.04 0.03 0.03 0.04 0.04 0.04 0.04 0.04 0.04 0.04 0.04 0.04 0.04 0.05 0.05 0.05 0.04 0.04 0.03 0.03 0.03 0.04 0.04
0.04 0.03 0.04 0.04 0.03 0.02 0.03 0.05 0.06 0.06 0.04 0.04 0.06 0.07 0.07 0.07 0.09 0.11 0.11 0.10 0.08 0.06 0.05 0.06 0.05 0.05 0.04 0.04 0.05 0.05 0.05 0.05 0.04 0.05 0.04 0.05 0.05 0.05 0.04 0.03 0.03 0.04 0.04
0.02 0.01 0.01 0.02 0.02 0.02 0.01 0.02 0.02 0.02 0.03 0.04 0.05 0.07 0.08 0.07 0.08 0.10 0.10 0.09 0.09 0.08 0.06 0.05 0.04 0.04 0.04 0.05 0.05 0.04 0.04 0.04 0.03 0.03 0.03 0.04 0.04 0.04 0.05 0.04 0.04 0.03 0.03
0.01 0.01 0.01 0.01 0.01 0.01 0.02 0.02 0.02 0.02 0.02 0.03 0.03 0.06 0.08 0.07 0.07 0.08 0.08 0.09 0.08 0.08 0.07 0.06 0.05 0.05 0.05 0.06 0.05 0.05 0.04 0.04 0.04 0.03 0.03 0.03 0.03 0.04 0.04 0.05 0.05 0.05 0.04
0.01 0.01 0.01 0.01 0.01 0.01 0.01 0.02 0.02 0.03 0.03 0.03 0.04 0.05 0.06 0.06 0.06 0.07 0.08 0.08 0.08 0.07 0.07 0.07 0.07 0.07 0.06 0.07 0.07 0.07 0.07 0.06 0.06 0.05 0.04 0.04 0.03 0.03 0.04 0.05 0.05 0.06 0.06
0.00 0.01 0.01 0.01 0.01 0.00 0.01 0.01 0.01 0.02 0.03 0.03 0.04 0.05 0.06 0.06 0.06 0.06 0.07 0.08 0.08 0.06 0.05 0.05 0.05 0.04 0.04 0.04 0.06 0.07 0.08 0.08 0.08 0.08 0.07 0.06 0.06 0.05 0.04 0.05 0.06 0.07 0.07
0.01 0.01 0.01 0.01 0.01 0.01 0.01 0.00 0.01 0.01 0.02 0.03 0.04 0.04 0.04 0.05 0.06 0.06 0.06 0.06 0.06 0.05 0.03 0.03 0.03 0.02 0.02 0.02 0.03 0.03 0.04 0.04 0.04 0.04 0.05 0.06 0.05 0.05 0.05 0.05 0.06 0.06 0.06
0.01 0.01 0.01 0.01 0.01 0.01 0.01 0.01 0.01 0.00 0.01 0.02 0.03 0.03 0.04 0.07 0.07 0.05 0.05 0.05 0.04 0.04 0.03 0.03 0.03 0.02 0.02 0.02 0.02 0.02 0.01 0.01 0.02 0.03 0.03 0.04 0.04 0.03 0.03 0.04 0.05 0.06 0.06
MSLP
1007.38 1007.86 1008.41 1009.04 1009.72 1010.46 1011.22 1011.98 1012.73 1013.44 1014.12 1014.73 1015.26 1015.70 1016.03 1016.24 1016.34 1016.33 1016.24 1016.12 1015.99 1015.91 1015.91 1016.02 1016.24 1016.56 1016.96 1017.42 1017.89 1018.35 1018.78 1019.17 1019.53 1019.85 1020.16 1020.46 1020.75 1021.05 1021.34 1021.60 1021.84 1022.04 1022.19
1007.39 1007.85 1008.37 1008.96 1009.62 1010.32 1011.06 1011.81 1012.54 1013.25 1013.90 1014.49 1015.01 1015.43 1015.75 1015.97 1016.10 1016.13 1016.11 1016.04 1015.98 1015.96 1015.99 1016.11 1016.32 1016.61 1016.96 1017.37 1017.80 1018.22 1018.63 1019.02 1019.38 1019.71 1020.02 1020.32 1020.61 1020.88 1021.13 1021.35 1021.54 1021.68 1021.79
1007.26 1007.72 1008.23 1008.81 1009.44 1010.13 1010.84 1011.57 1012.27 1012.94 1013.56 1014.12 1014.60 1015.00 1015.32 1015.55 1015.71 1015.81 1015.86 1015.89 1015.91 1015.96 1016.05 1016.20 1016.41 1016.68 1017.00 1017.36 1017.75 1018.14 1018.52 1018.89 1019.24 1019.57 1019.88 1020.16 1020.43 1020.67 1020.88 1021.05 1021.19 1021.28 1021.34
1006.98 1007.45 1007.98 1008.57 1009.21 1009.89 1010.60 1011.30 1011.97 1012.61 1013.18 1013.70 1014.14 1014.51 1014.82 1015.07 1015.27 1015.43 1015.57 1015.68 1015.80 1015.92 1016.08 1016.26 1016.49 1016.75 1017.05 1017.38 1017.72 1018.07 1018.42 1018.77 1019.10 1019.42 1019.71 1019.98 1020.22 1020.42 1020.60 1020.73 1020.82 1020.87 1020.89
1006.56 1007.06 1007.63 1008.25 1008.92 1009.62 1010.33 1011.03 1011.68 1012.29 1012.83 1013.30 1013.70 1014.05 1014.35 1014.61 1014.84 1015.06 1015.26 1015.46 1015.65 1015.86 1016.07 1016.30 1016.54 1016.80 1017.08 1017.38 1017.68 1018.00 1018.32 1018.64 1018.95 1019.24 1019.52 1019.76 1019.98 1020.16 1020.30 1020.40 1020.46 1020.48 1020.47
1006.05 1006.59 1007.19 1007.86 1008.58 1009.32 1010.05 1010.75 1011.41 1011.99 1012.51 1012.94 1013.32 1013.64 1013.92 1014.19 1014.45 1014.70 1014.96 1015.22 1015.49 1015.75 1016.02 1016.28 1016.54 1016.81 1017.07 1017.34 1017.62 1017.91 1018.20 1018.49 1018.78 1019.05 1019.30 1019.53 1019.72 1019.88 1020.00 1020.08 1020.12 1020.13 1020.12
1005.49 1006.05 1006.69 1007.41 1008.17 1008.95 1009.72 1010.44 1011.11 1011.69 1012.19 1012.61 1012.96 1013.26 1013.54 1013.81 1014.08 1014.36 1014.66 1014.97 1015.29 1015.61 1015.91 1016.21 1016.49 1016.76 1017.02 1017.28 1017.54 1017.80 1018.07 1018.34 1018.60 1018.85 1019.08 1019.29 1019.46 1019.61 1019.71 1019.78 1019.83 1019.84 1019.84
1004.91 1005.47 1006.13 1006.87 1007.67 1008.48 1009.28 1010.03 1010.71 1011.30 1011.80 1012.21 1012.56 1012.86 1013.13 1013.41 1013.69 1014.00 1014.34 1014.69 1015.04 1015.40 1015.75 1016.07 1016.38 1016.66 1016.92 1017.18 1017.43 1017.68 1017.93 1018.18 1018.42 1018.66 1018.87 1019.06 1019.22 1019.34 1019.44 1019.52 1019.57 1019.60 1019.61
1004.36 1004.88 1005.52 1006.25 1007.05 1007.87 1008.68 1009.44 1010.13 1010.74 1011.25 1011.67 1012.03 1012.34 1012.63 1012.92 1013.23 1013.57 1013.94 1014.33 1014.73 1015.13 1015.51 1015.87 1016.21 1016.51 1016.79 1017.06 1017.31 1017.56 1017.80 1018.03 1018.26 1018.47 1018.66 1018.83 1018.97 1019.09 1019.18 1019.26 1019.32 1019.37 1019.41
1003.84 1004.28 1004.86 1005.54 1006.30 1007.10 1007.89 1008.65 1009.34 1009.95 1010.48 1010.93 1011.31 1011.65 1011.97 1012.30 1012.66 1013.04 1013.45 1013.89 1014.33 1014.78 1015.21 1015.61 1015.98 1016.32 1016.63 1016.91 1017.17 1017.42 1017.66 1017.89 1018.10 1018.29 1018.46 1018.60 1018.72 1018.82 1018.90 1018.98 1019.05 1019.12 1019.18
1003.37 1003.71 1004.19 1004.77 1005.45 1006.18 1006.92 1007.65 1008.33 1008.94 1009.48 1009.96 1010.38 1010.76 1011.14 1011.53 1011.94 1012.38 1012.85 1013.34 1013.85 1014.35 1014.83 1015.28 1015.70 1016.07 1016.41 1016.72 1017.01 1017.27 1017.50 1017.72 1017.91 1018.08 1018.23 1018.34 1018.44 1018.52 1018.59 1018.65 1018.73 1018.81 1018.90
1002.99 1003.19 1003.53 1003.99 1004.55 1005.18 1005.84 1006.51 1007.15 1007.75 1008.30 1008.80 1009.27 1009.72 1010.16 1010.62 1011.10 1011.61 1012.15 1012.71 1013.28 1013.84 1014.37 1014.88 1015.34 1015.76 1016.13 1016.47 1016.77 1017.04 1017.28 1017.49 1017.68 1017.83 1017.94 1018.04 1018.11 1018.16 1018.21 1018.27 1018.34 1018.43 1018.54
1002.72 1002.78 1002.97 1003.28 1003.69 1004.19 1004.75 1005.33 1005.92 1006.49 1007.04 1007.57 1008.08 1008.58 1009.09 1009.63 1010.18 1010.77 1011.38 1012.01 1012.64 1013.25 1013.84 1014.39 1014.89 1015.34 1015.75 1016.11 1016.43 1016.71 1016.95 1017.16 1017.34 1017.48 1017.58 1017.65 1017.70 1017.74 1017.78 1017.83 1017.89 1017.99 1018.10
1002.60 1002.52 1002.56 1002.71 1002.98 1003.34 1003.77 1004.26 1004.78 1005.31 1005.85 1006.38 1006.92 1007.48 1008.05 1008.64 1009.26 1009.91 1010.59 1011.27 1011.94 1012.60 1013.22 1013.80 1014.32 1014.80 1015.22 1015.60 1015.93 1016.22 1016.47 1016.68 1016.86 1017.00 1017.10 1017.17 1017.22 1017.25 1017.29 1017.33 1017.40 1017.49 1017.61
1002.66 1002.46 1002.36 1002.38 1002.50 1002.73 1003.04 1003.43 1003.87 1004.34 1004.85 1005.38 1005.93 1006.50 1007.11 1007.74 1008.41 1009.10 1009.80 1010.51 1011.21 1011.88 1012.51 1013.09 1013.62 1014.10 1014.53 1014.90 1015.24 1015.54 1015.80 1016.03 1016.22 1016.37 1016.49 1016.58 1016.64 1016.69 1016.74 1016.79 1016.87 1016.97 1017.09
1002.91 1002.62 1002.41 1002.31 1002.31 1002.43 1002.63 1002.92 1003.28 1003.69 1004.15 1004.65 1005.18 1005.75 1006.36 1007.00 1007.67 1008.36 1009.06 1009.76 1010.45 1011.10 1011.71 1012.27 1012.78 1013.24 1013.65 1014.02 1014.35 1014.65 1014.93 1015.18 1015.40 1015.59 1015.75 1015.88 1015.98 1016.07 1016.15 1016.23 1016.32 1016.43 1016.56
1003.30 1002.95 1002.68 1002.50 1002.42 1002.44 1002.56 1002.77 1003.05 1003.39 1003.79 1004.23 1004.72 1005.26 1005.83 1006.43 1007.07 1007.72 1008.39 1009.04 1009.68 1010.28 1010.84 1011.35 1011.81 1012.23 1012.61 1012.96 1013.29 1013.59 1013.89 1014.16 1014.43 1014.67 1014.88 1015.08 1015.24 1015.39 1015.51 1015.63 1015.75 1015.87 1016.01
1003.80 1003.42 1003.12 1002.89 1002.76 1002.73 1002.79 1002.92 1003.13 1003.41 1003.73 1004.11 1004.53 1005.00 1005.50 1006.04 1006.61 1007.19 1007.78 1008.35 1008.91 1009.43 1009.92 1010.36 1010.76 1011.13 1011.47 1011.79 1012.10 1012.41 1012.72 1013.03 1013.34 1013.64 1013.92 1014.19 1014.42 1014.64 1014.82 1014.99 1015.14 1015.29 1015.43
1004.33 1003.96 1003.65 1003.42 1003.27 1003.21 1003.22 1003.31 1003.46 1003.66 1003.92 1004.21 1004.55 1004.93 1005.35 1005.79 1006.26 1006.75 1007.23 1007.71 1008.17 1008.60 1008.99 1009.35 1009.68 1009.99 1010.28 1010.57 1010.87 1011.18 1011.50 1011.85 1012.20 1012.56 1012.91 1013.24 1013.55 1013.83 1014.07 1014.29 1014.47 1014.64 1014.78
1004.86 1004.51 1004.22 1004.00 1003.86 1003.79 1003.78 1003.83 1003.93 1004.07 1004.25 1004.46 1004.71 1004.99 1005.31 1005.65 1006.01 1006.39 1006.76 1007.13 1007.49 1007.81 1008.12 1008.39 1008.65 1008.90 1009.14 1009.40 1009.68 1009.98 1010.32 1010.69 1011.08 1011.48 1011.88 1012.27 1012.64 1012.97 1013.26 1013.52 1013.73 1013.91 1014.06
1005.38 1005.06 1004.80 1004.60 1004.48 1004.41 1004.39 1004.41 1004.47 1004.55 1004.66 1004.79 1004.95 1005.14 1005.35 1005.59 1005.84 1006.11 1006.38 1006.64 1006.89 1007.13 1007.34 1007.54 1007.74 1007.93 1008.13 1008.36 1008.62 1008.92 1009.26 1009.64 1010.04 1010.47 1010.90 1011.33 1011.73 1012.09 1012.42 1012.69 1012.92 1013.11 1013.26
1005.91 1005.62 1005.39 1005.22 1005.11 1005.05 1005.02 1005.01 1005.03 1005.06 1005.11 1005.17 1005.25 1005.35 1005.47 1005.61 1005.77 1005.94 1006.11 1006.28 1006.44 1006.59 1006.73 1006.87 1007.00 1007.15 1007.32 1007.52 1007.76 1008.05 1008.38 1008.76 1009.17 1009.60 1010.04 1010.47 1010.87 1011.24 1011.57 1011.85 1012.08 1012.27 1012.42
1006.53 1006.26 1006.06 1005.90 1005.80 1005.73 1005.68 1005.65 1005.62 1005.61 1005.60 1005.60 1005.61 1005.64 1005.69 1005.75 1005.82 1005.91 1006.00 1006.09 1006.18 1006.26 1006.34 1006.42 1006.51 1006.62 1006.76 1006.94 1007.17 1007.44 1007.76 1008.12 1008.51 1008.92 1009.34 1009.74 1010.12 1010.47 1010.77 1011.03 1011.25 1011.43 1011.58
1007.33 1007.07 1006.86 1006.71 1006.59 1006.50 1006.43 1006.36 1006.30 1006.24 1006.18 1006.13 1006.09 1006.06 1006.05 1006.05 1006.06 1006.07 1006.10 1006.12 1006.14 1006.16 1006.18 1006.22 1006.27 1006.35 1006.46 1006.62 1006.83 1007.09 1007.39 1007.72 1008.08 1008.45 1008.83 1009.18 1009.51 1009.81 1010.07 1010.29 1010.48 1010.64 1010.78
1008.34 1008.08 1007.86 1007.69 1007.55 1007.43 1007.31 1007.21 1007.10 1007.00 1006.90 1006.81 1006.73 1006.65 1006.59 1006.54 1006.50 1006.46 1006.42 1006.38 1006.33 1006.29 1006.26 1006.25 1006.26 1006.31 1006.40 1006.54 1006.72 1006.96 1007.23 1007.54 1007.85 1008.18 1008.49 1008.78 1009.04 1009.27 1009.47 1009.63 1009.78 1009.91 1010.04
1009.57 1009.31 1009.07 1008.87 1008.69 1008.52 1008.37 1008.21 1008.07 1007.92 1007.79 1007.67 1007.55 1007.45 1007.35 1007.26 1007.16 1007.07 1006.96 1006.85 1006.74 1006.64 1006.55 1006.48 1006.44 1006.45 1006.50 1006.61 1006.78 1006.99 1007.23 1007.50 1007.77 1008.04 1008.28 1008.50 1008.68 1008.83 1008.95 1009.06 1009.15 1009.24 1009.35
Thickness
5716 5715 5714 5713 5713 5712 5711 5711 5711 5710 5710 5709 5708 5706 5704 5703 5702 5701 5700 5699 5697 5696 5696 5695 5695 5696 5696 5697 5697 5697 5696 5695 5690 5693 5696 5697 5697 5697 5696 5696 5696 5695 5693
5710 5709 5708 5708 5707 5707 5706 5707 5706 5705 5705 5704 5704 5702 5700 5699 5697 5696 5695 5694 5693 5691 5691 5691 5690 5691 5691 5691 5692 5691 5691 5692 5688 5686 5688 5690 5691 5693 5693 5692 5693 5693 5693
5704 5703 5701 5701 5701 5701 5701 5701 5700 5700 5699 5699 5699 5697 5696 5694 5693 5692 5691 5690 5690 5688 5688 5686 5686 5686 5684 5685 5685 5686 5686 5688 5686 5683 5683 5685 5686 5687 5686 5688 5689 5689 5690
5696 5696 5695 5695 5695 5695 5695 5695 5695 5695 5694 5694 5694 5693 5692 5690 5688 5687 5687 5686 5685 5684 5684 5683 5682 5681 5680 5680 5680 5680 5681 5680 5681 5679 5678 5679 5680 5682 5681 5680 5681 5683 5684
5689 5688 5689 5690 5690 5690 5689 5689 5690 5690 5690 5689 5688 5688 5688 5686 5685 5683 5682 5681 5680 5679 5679 5679 5679 5678 5677 5676 5676 5675 5675 5674 5674 5673 5673 5673 5674 5673 5673 5674 5674 5676 5678
5682 5682 5683 5684 5685 5685 5685 5684 5684 5684 5684 5684 5683 5683 5682 5681 5679 5677 5676 5675 5674 5673 5673 5673 5674 5673 5673 5672 5671 5671 5670 5669 5668 5667 5667 5667 5668 5669 5669 5669 5668 5668 5668
5676 5677 5678 5678 5679 5680 5681 5680 5679 5679 5679 5678 5677 5677 5676 5674 5672 5671 5669 5669 5668 5668 5668 5668 5669 5670 5668 5667 5666 5666 5666 5666 5665 5664 5663 5663 5664 5666 5665 5664 5663 5663 5664
5670 5671 5673 5673 5674 5675 5675 5675 5674 5674 5673 5673 5672 5672 5670 5669 5666 5665 5664 5663 5663 5663 5664 5663 5663 5663 5664 5662 5661 5660 5661 5661 5661 5661 5661 5662 5663 5663 5662 5661 5660 5660 5662
5663 5665 5666 5668 5669 5670 5669 5670 5670 5669 5668 5668 5668 5667 5665 5663 5660 5659 5657 5658 5657 5657 5658 5658 5658 5657 5657 5656 5655 5654 5654 5655 5657 5657 5657 5658 5658 5658 5657 5655 5654 5653 5653
5658 5660 5661 5663 5664 5665 5665 5666 5666 5665 5664 5664 5664 5663 5661 5658 5655 5653 5651 5652 5651 5651 5652 5652 5651 5651 5649 5648 5648 5647 5646 5648 5649 5650 5651 5652 5652 5652 5652 5651 5650 5648 5648
5653 5655 5656 5658 5659 5661 5662 5662 5661 5661 5660 5659 5658 5657 5656 5654 5651 5648 5646 5646 5645 5645 5645 5646 5646 5644 5643 5642 5641 5641 5641 5642 5642 5643 5644 5646 5647 5647 5647 5646 5646 5645 5643
5647 5649 5651 5653 5655 5658 5656 5656 5656 5656 5654 5653 5653 5652 5651 5650 5647 5644 5642 5640 5639 5639 5640 5640 5639 5637 5636 5635 5635 5636 5635 5635 5636 5637 5638 5639 5640 5641 5642 5642 5642 5641 5641
5641 5643 5645 5647 5649 5651 5651 5651 5651 5650 5649 5649 5648 5647 5646 5645 5643 5640 5637 5635 5634 5633 5634 5633 5632 5631 5630 5629 5630 5630 5629 5629 5629 5630 5631 5633 5635 5636 5637 5636 5636 5636 5636
5635 5637 5640 5642 5644 5645 5646 5646 5645 5644 5643 5643 5642 5642 5641 5640 5638 5635 5632 5629 5627 5626 5625 5625 5624 5624 5624 5624 5624 5624 5624 5624 5624 5624 5625 5627 5628 5629 5629 5630 5629 5629 5628
5631 5633 5636 5638 5639 5639 5640 5640 5640 5638 5638 5637 5637 5637 5635 5633 5631 5628 5627 5626 5623 5621 5619 5619 5619 5619 5618 5618 5619 5620 5620 5619 5618 5618 5619 5619 5620 5621 5622 5623 5623 5623 5621
5627 5629 5631 5633 5633 5634 5634 5634 5633 5633 5631 5631 5630 5629 5629 5627 5625 5623 5621 5619 5617 5615 5613 5614 5614 5614 5614 5614 5614 5614 5614 5614 5613 5613 5613 5613 5613 5614 5614 5615 5615 5615 5614
5623 5624 5626 5628 5629 5630 5630 5629 5628 5626 5624 5623 5623 5622 5620 5618 5617 5615 5613 5611 5609 5608 5607 5609 5609 5609 5609 5608 5608 5608 5608 5608 5607 5606 5606 5606 5606 5607 5607 5607 5607 5607 5607
5618 5619 5620 5622 5624 5625 5625 5625 5624 5623 5621 5620 5617 5615 5614 5612 5611 5608 5605 5603 5604 5603 5604 5604 5604 5604 5603 5602 5602 5602 5602 5601 5600 5599 5599 5599 5599 5599 5599 5599 5599 5599 5599
5613 5614 5615 5618 5619 5620 5620 5620 5620 5619 5618 5617 5615 5611 5607 5606 5603 5601 5598 5599 5601 5601 5601 5600 5600 5599 5598 5598 5597 5597 5596 5595 5594 5593 5592 5591 5591 5591 5591 5591 5592 5591 5591
5607 5607 5608 5611 5613 5614 5615 5615 5614 5613 5613 5612 5610 5607 5603 5601 5599 5597 5595 5596 5597 5597 5596 5595 5595 5595 5594 5593 5592 5592 5590 5589 5588 5586 5585 5584 5583 5583 5583 5583 5584 5584 5584
5604 5604 5602 5604 5605 5607 5608 5607 5607 5607 5606 5606 5605 5603 5599 5597 5596 5595 5593 5592 5592 5591 5590 5590 5589 5589 5589 5588 5587 5586 5585 5583 5582 5580 5578 5576 5576 5575 5575 5576 5576 5577 5577
5597 5598 5599 5598 5599 5599 5600 5600 5600 5600 5600 5600 5598 5596 5592 5592 5591 5590 5589 5588 5587 5586 5585 5584 5583 5583 5582 5581 5580 5578 5577 5575 5573 5571 5570 5569 5568 5568 5568 5569 5569 5569 5569
5590 5591 5592 5593 5593 5592 5593 5594 5594 5593 5593 5593 5591 5589 5586 5585 5585 5584 5583 5582 5581 5580 5579 5578 5577 5575 5575 5573 5572 5569 5567 5564 5563 5562 5561 5560 5560 5560 5560 5561 5561 5561 5562
5584 5584 5585 5586 5587 5587 5586 5587 5587 5586 5586 5584 5582 5581 5580 5578 5578 5577 5576 5575 5574 5573 5572 5570 5569 5567 5566 5565 5563 5560 5556 5555 5553 5553 5553 5552 5552 5553 5553 5553 5554 5555 5555
5577 5578 5579 5580 5580 5580 5580 5579 5579 5579 5578 5576 5575 5573 5572 5571 5570 5569 5569 5568 5567 5565 5564 5562 5561 5559 5557 5556 5553 5549 5547 5546 5545 5544 5544 5545 5545 5546 5547 5547 5547 5547 5547
5571 5572 5572 5573 5573 5573 5572 5572 5571 5571 5570 5569 5568 5566 5565 5564 5563 5561 5560 5559 5558 5557 5555 5553 5551 5550 5548 5546 5543 5542 5540 5539 5537 5536 5536 5537 5538 5538 5539 5539 5540 5540 5539